Location: Nitra
(0.0000°N, 18.0833°E)
Time: 15:07:51
(UTC+02:00)

N. Korean satellite - Pass Details

Date: 23 April 2021
Orbit: 450 x 501 km, 97.2° (Epoch: 15 May)

Event Time Altitude Azimuth Distance (km) Brightness Sun altitude
Rises 04:57:03 0° 46° (NE) 2,470 11.1 -26.5°
Reaches altitude 10° 05:00:19 10° 81° (E) 1,590 10.2 -25.7°
Maximum altitude 05:01:29 11° 101° (E) 1,502 9.9 -25.5°
Drops below altitude 10° 05:02:39 10° 121° (ESE) 1,587 9.7 -25.2°
Sets 05:05:54 0° 156° (SSE) 2,457 10.3 -24.4°
